Hourly Data Report for October 21, 2016

CORAL HARBOUR A
NUNAVUT

64°11'36.000" N
83°21'34.000" W
62.20 m
2301002
71915
YZS

Download Data

Hourly Data (October 2016)
Hourly Data Report for October 21, 2016
TIME
LST
Temp Definition
°C
Dew Point Definition
°C
Rel Hum Definition
%
Precip. Amount Definition
mm

Wind Dir Definition
10's deg

Wind Spd Definition
km/h
Visibility Definition
km
Stn Press Definition
kPa
Hmdx Definition


Wind Chill Definition


Weather Definition


00:00 -8.1 -10.5 83   35 10 24.1 100.86   -13 LegendNANA
01:00 -7.3 -9.9 82   4 9 24.1 100.86   -12 Snow
02:00 -7.2 -8.9 88   6 10 19.3 100.86   -12 Snow
03:00 -7.0 -8.7 88   6 12 24.1 100.86   -12 Snow
04:00 -6.8 -8.5 88   6 14 24.1 100.86   -13 Snow
05:00 -6.5 -8.0 89   7 18 19.3 100.87   -13 Snow
06:00 -6.5 -7.9 90   7 19 9.7 100.86   -13 Snow
07:00 -6.5 -7.9 90   7 22 6.4 100.87   -14 Snow
08:00 -6.5 -7.9 90   7 20 4.8 100.88   -13 Snow
09:00 -6.4 -8.2 87   7 24 4.8 100.89   -14 Snow
10:00 -6.2 -7.7 89   7 25 6.4 100.89   -14 Snow
11:00 -6.0 -8.0 86   7 25 9.7 100.89   -14 Snow
12:00 -5.9 -7.9 86   7 30 24.1 100.90   -14 Snow
13:00 -5.9 -7.7 87   6 30 4.8 100.91   -14 Snow,Blowing Snow
14:00 -6.1 -7.9 87   6 33 6.4 100.92   -15 Snow,Blowing Snow
15:00 -6.3 -8.4 85   6 30 6.4 100.95   -15 Snow,Blowing Snow
16:00 -7.0 -9.6 82   6 30 24.1 101.00   -16 Snow
17:00 -7.4 -10.4 79   5 28 24.1 101.04   -16 Snow
18:00 -7.6 -10.8 78   5 34 24.1 101.08   -17 Snow
19:00 -7.4 -10.6 78   6 37 24.1 101.11   -17 Snow
20:00 -7.1 -10.2 79   6 35 24.1 101.17   -16 Snow
21:00 -6.9 -10.3 77   6 35 24.1 101.19   -16 Snow
22:00 -6.9 -10.0 79   7 28 24.1 101.24   -15 Snow
23:00 -7.1 -10.6 76   7 32 24.1 101.29   -16 Snow

Notes on Data Quality.

Legend

  • E = Estimated
  • M = Missing
  • NA = Not Available*
  • [empty] = Indicates an unobserved value
Date modified: